Location: Moulis
(42.9609°N, 1.0909°E)
Time: 16:38:50
(UTC+00:00)

Cosmos 2333 Rocket - Pass Details

Date: 11 December 2025
Orbit: 837 x 865 km, 70.8° (Epoch: 16 January)

Event Time Altitude Azimuth Distance (km) Brightness Sun altitude
Rises 18:48:12 0° 175° (S) 3,408 5.4 -26.0°
Reaches altitude 10° 18:50:52 10° 165° (SSE) 2,481 4.5 -26.5°
Enters shadow 18:51:19 12° 163° (SSE) 2,338 4.4 -26.6°
